When you browse on this site, cookies collect data to enhance your experience and personalize the content and advertising you see.
Visit our Privacy Policy to learn more. By continuing to use the site, you agree to this use of cookies and data.

Stündliche Wetter Sumgayit

Heute, 4 August, Dienstag

Zeit Temperatur Niederschläge Wind Luftdruck Luftfeuchtigkeit
00:00 +23°C° 0 mm 8 m/S 739 mmHg 50%
01:00 +23°C° 0 mm 7 m/S 739 mmHg 49%
02:00 +23°C° 0 mm 5 m/S 739 mmHg 48%
03:00 +23°C° 0 mm 4 m/S 739 mmHg 48%
04:00 +24°C° 0 mm 3 m/S 739 mmHg 49%
05:00 +24°C° 0 mm 3 m/S 739 mmHg 50%
06:00 +24°C° 0 mm 2 m/S 739 mmHg 51%
07:00 +25°C° 0 mm 2 m/S 739 mmHg 48%
08:00 +25°C° 0 mm 2 m/S 739 mmHg 46%
09:00 +26°C° 0 mm 2 m/S 740 mmHg 43%
10:00 +26°C° 0 mm 2 m/S 739 mmHg 41%
11:00 +27°C° 0 mm 1 m/S 739 mmHg 39%
12:00 +27°C° 0 mm 1 m/S 739 mmHg 37%
13:00 +28°C° 0 mm 2 m/S 739 mmHg 35%
14:00 +28°C° 0 mm 2 m/S 738 mmHg 34%
15:00 +29°C° 0 mm 3 m/S 738 mmHg 33%
16:00 +28°C° 0 mm 3 m/S 738 mmHg 35%
17:00 +28°C° 0 mm 3 m/S 738 mmHg 37%
18:00 +27°C° 0 mm 4 m/S 738 mmHg 39%
19:00 +26°C° 0 mm 3 m/S 738 mmHg 43%
20:00 +26°C° 0 mm 2 m/S 738 mmHg 47%
21:00 +25°C° 0 mm 1 m/S 738 mmHg 51%
22:00 +25°C° 0 mm 2 m/S 737 mmHg 53%
23:00 +24°C° 0 mm 2 m/S 737 mmHg 56%

Morgen, 5 August, Mittwoch

Zeit Temperatur Niederschläge Wind Luftdruck Luftfeuchtigkeit
00:00 +24°C° 0 mm 2 m/S 737 mmHg 58%
01:00 +24°C° 0 mm 2 m/S 737 mmHg 57%
02:00 +24°C° 0 mm 3 m/S 736 mmHg 57%
03:00 +22°C° 0 mm 3 m/S 736 mmHg 57%
04:00 +24°C° 0 mm 2 m/S 736 mmHg 55%
05:00 +24°C° 0 mm 2 m/S 736 mmHg 53%
06:00 +24°C° 0 mm 1 m/S 736 mmHg 51%
07:00 +25°C° 0 mm 2 m/S 736 mmHg 46%
08:00 +27°C° 0 mm 3 m/S 736 mmHg 40%
09:00 +28°C° 0 mm 3 m/S 736 mmHg 35%
10:00 +29°C° 0 mm 4 m/S 736 mmHg 34%
11:00 +29°C° 0 mm 4 m/S 736 mmHg 33%
12:00 +30°C° 0 mm 5 m/S 736 mmHg 33%
13:00 +30°C° 0 mm 5 m/S 736 mmHg 34%
14:00 +30°C° 0 mm 6 m/S 735 mmHg 35%
15:00 +29°C° 0 mm 6 m/S 735 mmHg 36%
16:00 +29°C° 0 mm 6 m/S 735 mmHg 38%
17:00 +28°C° 0 mm 5 m/S 735 mmHg 40%
18:00 +27°C° 0 mm 5 m/S 735 mmHg 41%
19:00 +27°C° 0 mm 4 m/S 736 mmHg 42%
20:00 +26°C° 0 mm 3 m/S 736 mmHg 42%
21:00 +26°C° 0 mm 3 m/S 736 mmHg 42%
22:00 +26°C° 0 mm 2 m/S 736 mmHg 43%
23:00 +25°C° 0 mm 2 m/S 736 mmHg 44%

übermorgen, 6 August, Donnerstag

Zeit Temperatur Niederschläge Wind Luftdruck Luftfeuchtigkeit
00:00 +25°C° 0 mm 2 m/S 736 mmHg 45%
01:00 +25°C° 0 mm 2 m/S 736 mmHg 46%
02:00 +24°C° 0 mm 2 m/S 736 mmHg 46%
03:00 +24°C° 0 mm 2 m/S 736 mmHg 47%
04:00 +24°C° 0 mm 1 m/S 736 mmHg 45%
05:00 +25°C° 0 mm 1 m/S 736 mmHg 42%
06:00 +23°C° 0 mm 0 m/S 736 mmHg 40%
07:00 +26°C° 0 mm 1 m/S 737 mmHg 39%
08:00 +27°C° 0 mm 2 m/S 737 mmHg 38%
09:00 +27°C° 0 mm 2 m/S 737 mmHg 36%
10:00 +28°C° 0 mm 4 m/S 738 mmHg 37%
11:00 +29°C° 0 mm 5 m/S 738 mmHg 37%
12:00 +29°C° 0 mm 6 m/S 738 mmHg 37%
13:00 +29°C° 0 mm 7 m/S 738 mmHg 38%
14:00 +29°C° 0 mm 7 m/S 738 mmHg 39%
15:00 +29°C° 0 mm 7 m/S 738 mmHg 40%
16:00 +29°C° 0 mm 7 m/S 738 mmHg 41%
17:00 +28°C° 0 mm 6 m/S 738 mmHg 42%
18:00 +27°C° 0 mm 6 m/S 738 mmHg 43%
19:00 +27°C° 0 mm 5 m/S 738 mmHg 43%
20:00 +27°C° 0 mm 3 m/S 738 mmHg 43%
21:00 +26°C° 0 mm 2 m/S 738 mmHg 44%
22:00 +26°C° 0 mm 2 m/S 738 mmHg 47%
23:00 +25°C° 0 mm 2 m/S 738 mmHg 51%

7 August, Freitag

Zeit Temperatur Niederschläge Wind Luftdruck Luftfeuchtigkeit
00:00 +25°C° 0 mm 3 m/S 738 mmHg 55%
01:00 +25°C° 0 mm 3 m/S 738 mmHg 56%
02:00 +24°C° 0 mm 3 m/S 737 mmHg 57%
03:00 +23°C° 0 mm 4 m/S 737 mmHg 58%
04:00 +24°C° 0 mm 3 m/S 737 mmHg 55%
05:00 +25°C° 0 mm 3 m/S 737 mmHg 53%
06:00 +25°C° 0 mm 3 m/S 738 mmHg 50%
07:00 +27°C° 0 mm 3 m/S 738 mmHg 44%
08:00 +29°C° 0 mm 3 m/S 738 mmHg 38%
09:00 +31°C° 0 mm 3 m/S 738 mmHg 32%
10:00 +33°C° 0 mm 3 m/S 738 mmHg 30%
11:00 +33°C° 0 mm 3 m/S 738 mmHg 28%
12:00 +34°C° 0 mm 3 m/S 738 mmHg 27%
13:00 +34°C° 0 mm 3 m/S 737 mmHg 27%
14:00 +34°C° 0 mm 3 m/S 737 mmHg 28%
15:00 +33°C° 0 mm 3 m/S 737 mmHg 29%
16:00 +33°C° 0 mm 3 m/S 737 mmHg 31%
17:00 +31°C° 0 mm 3 m/S 737 mmHg 33%
18:00 +30°C° 0 mm 3 m/S 737 mmHg 35%
19:00 +30°C° 0 mm 3 m/S 737 mmHg 38%
20:00 +29°C° 0 mm 3 m/S 737 mmHg 40%
21:00 +29°C° 0 mm 3 m/S 737 mmHg 42%
22:00 +28°C° 0 mm 3 m/S 737 mmHg 43%
23:00 +28°C° 0 mm 3 m/S 737 mmHg 44%

8 August, Samstag

Zeit Temperatur Niederschläge Wind Luftdruck Luftfeuchtigkeit
00:00 +28°C° 0 mm 3 m/S 737 mmHg 44%
01:00 +27°C° 0 mm 3 m/S 736 mmHg 44%
02:00 +27°C° 0 mm 3 m/S 736 mmHg 44%
03:00 +27°C° 0 mm 3 m/S 736 mmHg 44%
04:00 +27°C° 0 mm 2 m/S 736 mmHg 43%
05:00 +27°C° 0 mm 2 m/S 736 mmHg 42%
06:00 +28°C° 0 mm 2 m/S 736 mmHg 40%
07:00 +29°C° 0 mm 2 m/S 736 mmHg 37%
08:00 +31°C° 0 mm 2 m/S 736 mmHg 33%
09:00 +33°C° 0 mm 3 m/S 736 mmHg 29%
10:00 +34°C° 0 mm 3 m/S 735 mmHg 28%
11:00 +35°C° 0 mm 3 m/S 735 mmHg 27%
12:00 +35°C° 0 mm 4 m/S 735 mmHg 26%
13:00 +35°C° 0 mm 4 m/S 735 mmHg 27%
14:00 +35°C° 0 mm 5 m/S 734 mmHg 28%
15:00 +35°C° 0 mm 5 m/S 734 mmHg 29%
16:00 +34°C° 0 mm 5 m/S 734 mmHg 32%
17:00 +33°C° 0 mm 5 m/S 734 mmHg 35%
18:00 +32°C° 0 mm 5 m/S 734 mmHg 39%
19:00 +30°C° 0 mm 5 m/S 734 mmHg 43%
20:00 +29°C° 0 mm 4 m/S 734 mmHg 47%
21:00 +28°C° 0 mm 3 m/S 734 mmHg 52%
22:00 +28°C° 0 mm 2 m/S 734 mmHg 54%
23:00 +28°C° 0 mm 2 m/S 733 mmHg 56%

9 August, Sonntag

Zeit Temperatur Niederschläge Wind Luftdruck Luftfeuchtigkeit
00:00 +27°C° 0 mm 2 m/S 733 mmHg 58%
01:00 +27°C° 0 mm 2 m/S 733 mmHg 59%
02:00 +26°C° 0 mm 1 m/S 733 mmHg 60%
03:00 +26°C° 0 mm 1 m/S 732 mmHg 61%
04:00 +26°C° 0 mm 2 m/S 733 mmHg 59%
05:00 +27°C° 0 mm 2 m/S 733 mmHg 57%
06:00 +27°C° 0 mm 2 m/S 733 mmHg 54%
07:00 +28°C° 0 mm 3 m/S 733 mmHg 49%
08:00 +30°C° 0 mm 4 m/S 733 mmHg 43%
09:00 +32°C° 0 mm 5 m/S 733 mmHg 38%
10:00 +33°C° 0 mm 5 m/S 733 mmHg 37%
11:00 +33°C° 0 mm 6 m/S 733 mmHg 36%
12:00 +34°C° 0 mm 6 m/S 733 mmHg 35%
13:00 +34°C° 0 mm 6 m/S 733 mmHg 35%
14:00 +33°C° 0 mm 6 m/S 732 mmHg 36%
15:00 +33°C° 0 mm 6 m/S 732 mmHg 36%
16:00 +32°C° 0 mm 6 m/S 732 mmHg 39%
17:00 +30°C° 0 mm 5 m/S 732 mmHg 42%
18:00 +29°C° 0 mm 5 m/S 732 mmHg 45%
19:00 +28°C° 0 mm 4 m/S 732 mmHg 48%
20:00 +28°C° 0 mm 3 m/S 732 mmHg 51%
21:00 +27°C° 0 mm 2 m/S 732 mmHg 54%
22:00 +27°C° 0 mm 2 m/S 732 mmHg 53%
23:00 +27°C° 0 mm 1 m/S 732 mmHg 53%
Mehr zeigen